Time,TemperatureF,DewpointF,PressureIn,WindDirection,WindDirectionDegrees,WindSpeedMPH,WindSpeedGustMPH,Humidity,HourlyPrecipIn,Conditions,Clouds,dailyrainin,SoftwareType,DateUTC
2013-02-16 00:02:00,44.2,25.8,29.50,ESE,108,0.0,0.0,48,0.00,,---,0.00,VWS V14.01,2013-02-16 08:02:00,
2013-02-16 00:07:00,44.6,27.1,29.50,ESE,108,0.0,0.0,50,0.00,,---,0.00,VWS V14.01,2013-02-16 08:07:00,
2013-02-16 00:12:00,43.5,24.6,29.50,East,96,0.0,0.0,47,0.00,,---,0.00,VWS V14.01,2013-02-16 08:12:00,
2013-02-16 00:17:00,43.9,26.0,29.50,East,96,0.0,0.0,49,0.00,,---,0.00,VWS V14.01,2013-02-16 08:17:00,
2013-02-16 00:22:00,43.2,24.3,29.50,NNW,327,0.0,0.0,47,0.00,,---,0.00,VWS V14.01,2013-02-16 08:22:00,
2013-02-16 00:27:00,42.3,22.5,29.50,NNW,327,0.0,0.0,45,0.00,,---,0.00,VWS V14.01,2013-02-16 08:27:00,
2013-02-16 00:32:00,42.3,24.0,29.50,NNW,330,2.7,3.1,48,0.00,,---,0.00,VWS V14.01,2013-02-16 08:32:00,
2013-02-16 00:37:00,43.2,27.2,29.50,NW,309,0.0,0.0,53,0.00,,---,0.00,VWS V14.01,2013-02-16 08:37:00,
2013-02-16 00:42:00,42.4,26.1,29.50,NW,309,0.0,0.0,52,0.00,,---,0.00,VWS V14.01,2013-02-16 08:42:00,
2013-02-16 00:47:00,42.3,25.9,29.50,NW,309,0.0,0.0,52,0.00,,---,0.00,VWS V14.01,2013-02-16 08:47:00,
2013-02-16 00:52:00,42.1,25.7,29.50,NW,309,0.0,0.0,52,0.00,,---,0.00,VWS V14.01,2013-02-16 08:52:00,
2013-02-16 00:57:00,42.3,26.8,29.50,NNW,331,0.0,0.0,54,0.00,,---,0.00,VWS V14.01,2013-02-16 08:57:00,
2013-02-16 01:02:00,42.4,27.4,29.47,NNW,340,4.5,4.5,55,0.00,,---,0.00,VWS V14.01,2013-02-16 09:02:00,
2013-02-16 01:07:00,41.7,26.8,29.47,NNW,340,0.0,0.0,55,0.00,,---,0.00,VWS V14.01,2013-02-16 09:07:00,
2013-02-16 01:12:00,41.7,26.8,29.47,NNW,340,0.0,0.0,55,0.00,,---,0.00,VWS V14.01,2013-02-16 09:12:00,
2013-02-16 01:17:00,42.8,28.6,29.50,NNW,340,0.0,0.0,57,0.00,,---,0.00,VWS V14.01,2013-02-16 09:17:00,
2013-02-16 01:22:00,42.4,28.3,29.50,SE,135,3.6,4.9,57,0.00,,---,0.00,VWS V14.01,2013-02-16 09:22:00,
2013-02-16 01:27:00,44.1,30.7,29.50,SE,145,4.0,4.5,59,0.00,,---,0.00,VWS V14.01,2013-02-16 09:27:00,
2013-02-16 01:32:00,44.2,28.7,29.47,SE,143,4.0,4.5,54,0.00,,---,0.00,VWS V14.01,2013-02-16 09:32:00,
2013-02-16 01:38:00,43.7,25.3,29.47,SSW,192,3.1,4.5,48,0.00,,---,0.00,VWS V14.01,2013-02-16 09:38:00,
2013-02-16 01:43:00,43.2,25.3,29.47,SSW,194,3.6,3.6,49,0.00,,---,0.00,VWS V14.01,2013-02-16 09:43:00,
2013-02-16 01:48:00,42.1,23.3,29.47,SSW,199,4.0,4.0,47,0.00,,---,0.00,VWS V14.01,2013-02-16 09:48:00,
2013-02-16 01:53:00,41.5,23.8,29.47,SW,215,0.0,0.0,49,0.00,,---,0.00,VWS V14.01,2013-02-16 09:53:00,
2013-02-16 01:58:00,41.0,23.3,29.47,SW,215,0.0,0.0,49,0.00,,---,0.00,VWS V14.01,2013-02-16 09:58:00,
2013-02-16 02:03:00,40.5,22.8,29.47,SW,215,0.0,0.0,49,0.00,,---,0.00,VWS V14.01,2013-02-16 10:03:00,
2013-02-16 02:08:00,40.6,23.9,29.47,SW,215,0.0,0.0,51,0.00,,---,0.00,VWS V14.01,2013-02-16 10:08:00,
2013-02-16 02:13:00,40.6,24.4,29.47,SW,215,0.0,0.0,52,0.00,,---,0.00,VWS V14.01,2013-02-16 10:13:00,
2013-02-16 02:18:00,40.8,25.0,29.47,SW,217,0.0,0.0,53,0.00,,---,0.00,VWS V14.01,2013-02-16 10:18:00,
2013-02-16 02:23:00,41.0,25.2,29.47,WSW,243,0.0,0.0,53,0.00,,---,0.00,VWS V14.01,2013-02-16 10:23:00,
2013-02-16 02:28:00,40.6,24.9,29.47,WSW,243,0.0,0.0,53,0.00,,---,0.00,VWS V14.01,2013-02-16 10:28:00,
2013-02-16 02:33:00,40.6,26.2,29.47,WSW,243,0.0,0.0,56,0.00,,---,0.00,VWS V14.01,2013-02-16 10:33:00,
2013-02-16 02:38:00,40.5,25.6,29.47,WSW,246,0.0,0.0,55,0.00,,---,0.00,VWS V14.01,2013-02-16 10:38:00,
2013-02-16 02:43:00,40.1,25.2,29.47,WNW,300,3.6,4.0,55,0.00,,---,0.00,VWS V14.01,2013-02-16 10:43:00,
2013-02-16 02:48:00,40.3,25.9,29.47,WNW,301,0.0,0.0,56,0.00,,---,0.00,VWS V14.01,2013-02-16 10:48:00,
2013-02-16 02:53:00,39.7,24.9,29.47,WNW,301,0.0,0.0,55,0.00,,---,0.00,VWS V14.01,2013-02-16 10:53:00,
2013-02-16 02:58:00,39.9,25.5,29.47,WNW,302,0.0,0.0,56,0.00,,---,0.00,VWS V14.01,2013-02-16 10:58:00,
2013-02-16 03:03:00,39.6,25.2,29.47,NW,308,0.0,0.0,56,0.00,,---,0.00,VWS V14.01,2013-02-16 11:03:00,
2013-02-16 03:08:00,41.0,27.8,29.47,West,273,0.0,0.0,59,0.00,,---,0.00,VWS V14.01,2013-02-16 11:08:00,
2013-02-16 03:13:00,40.5,27.3,29.47,West,273,0.0,0.0,59,0.00,,---,0.00,VWS V14.01,2013-02-16 11:13:00,
2013-02-16 03:18:00,41.0,28.2,29.47,West,273,0.0,0.0,60,0.00,,---,0.00,VWS V14.01,2013-02-16 11:18:00,
2013-02-16 03:24:00,40.3,26.7,29.47,NNE,14,0.0,0.0,58,0.00,,---,0.00,VWS V14.01,2013-02-16 11:24:00,
2013-02-16 03:29:00,39.9,26.4,29.47,WNW,290,3.6,4.9,58,0.00,,---,0.00,VWS V14.01,2013-02-16 11:29:00,
2013-02-16 03:34:00,40.3,27.1,29.47,NNW,331,3.1,4.0,59,0.00,,---,0.00,VWS V14.01,2013-02-16 11:34:00,
2013-02-16 03:39:00,39.4,25.4,29.47,NNE,30,0.0,4.0,57,0.00,,---,0.00,VWS V14.01,2013-02-16 11:39:00,
2013-02-16 03:44:00,39.9,26.4,29.47,ESE,119,0.0,4.5,58,0.00,,---,0.00,VWS V14.01,2013-02-16 11:44:00,
2013-02-16 03:49:00,40.5,27.3,29.47,ESE,119,0.0,0.0,59,0.00,,---,0.00,VWS V14.01,2013-02-16 11:49:00,
2013-02-16 03:54:00,41.9,30.2,29.47,ESE,120,0.0,0.0,63,0.00,,---,0.00,VWS V14.01,2013-02-16 11:54:00,
2013-02-16 03:59:00,41.7,29.7,29.47,NE,54,0.0,0.0,62,0.00,,---,0.00,VWS V14.01,2013-02-16 11:59:00,
2013-02-16 04:04:00,42.4,30.8,29.44,ENE,75,3.1,3.6,63,0.00,,---,0.00,VWS V14.01,2013-02-16 12:04:00,
2013-02-16 04:09:00,42.1,29.2,29.44,East,86,0.0,0.0,60,0.00,,---,0.00,VWS V14.01,2013-02-16 12:09:00,
2013-02-16 04:14:00,41.7,27.2,29.44,WSW,250,5.4,5.4,56,0.00,,---,0.00,VWS V14.01,2013-02-16 12:14:00,
2013-02-16 04:19:00,40.3,24.1,29.44,WSW,250,0.0,0.0,52,0.00,,---,0.00,VWS V14.01,2013-02-16 12:19:00,
2013-02-16 04:24:00,39.7,23.6,29.44,North,0,4.9,4.9,52,0.00,,---,0.00,VWS V14.01,2013-02-16 12:24:00,
2013-02-16 04:29:00,39.9,24.2,29.44,NNW,328,0.0,3.1,53,0.00,,---,0.00,VWS V14.01,2013-02-16 12:29:00,
2013-02-16 04:34:00,39.9,24.2,29.44,North,351,0.0,0.0,53,0.00,,---,0.00,VWS V14.01,2013-02-16 12:34:00,
2013-02-16 04:39:00,39.7,23.6,29.44,North,351,0.0,0.0,52,0.00,,---,0.00,VWS V14.01,2013-02-16 12:39:00,
2013-02-16 04:44:00,39.4,23.2,29.44,North,351,0.0,0.0,52,0.00,,---,0.00,VWS V14.01,2013-02-16 12:44:00,
2013-02-16 04:49:00,39.4,23.7,29.44,North,351,0.0,0.0,53,0.00,,---,0.00,VWS V14.01,2013-02-16 12:49:00,
2013-02-16 04:54:00,39.4,23.7,29.44,North,351,0.0,0.0,53,0.00,,---,0.00,VWS V14.01,2013-02-16 12:54:00,
2013-02-16 04:59:00,39.4,24.1,29.44,North,351,0.0,0.0,54,0.00,,---,0.00,VWS V14.01,2013-02-16 12:59:00,
2013-02-16 05:04:00,39.9,25.5,29.44,North,351,0.0,0.0,56,0.00,,---,0.00,VWS V14.01,2013-02-16 13:04:00,
2013-02-16 05:09:00,40.1,25.7,29.44,North,351,0.0,0.0,56,0.00,,---,0.00,VWS V14.01,2013-02-16 13:09:00,
2013-02-16 05:14:00,40.5,26.0,29.44,ENE,75,0.0,0.0,56,0.00,,---,0.00,VWS V14.01,2013-02-16 13:14:00,
2013-02-16 05:19:00,41.2,27.1,29.44,ENE,75,0.0,0.0,57,0.00,,---,0.00,VWS V14.01,2013-02-16 13:19:00,
2013-02-16 05:25:00,41.2,26.7,29.44,NE,35,0.0,2.7,56,0.00,,---,0.00,VWS V14.01,2013-02-16 13:25:00,
2013-02-16 05:30:00,41.2,26.2,29.44,NE,44,0.0,3.1,55,0.00,,---,0.00,VWS V14.01,2013-02-16 13:30:00,
2013-02-16 05:35:00,40.3,23.6,29.44,North,351,3.6,4.0,51,0.00,,---,0.00,VWS V14.01,2013-02-16 13:35:00,
2013-02-16 05:40:00,39.9,22.8,29.44,NNW,340,3.6,4.0,50,0.00,,---,0.00,VWS V14.01,2013-02-16 13:40:00,
2013-02-16 05:46:00,39.6,22.0,29.44,North,356,0.0,0.0,49,0.00,,---,0.00,VWS V14.01,2013-02-16 13:46:00,
2013-02-16 05:51:00,39.7,23.1,29.44,East,101,2.7,3.6,51,0.00,,---,0.00,VWS V14.01,2013-02-16 13:51:00,
2013-02-16 05:56:00,40.3,24.1,29.44,East,101,0.0,0.0,52,0.00,,---,0.00,VWS V14.01,2013-02-16 13:56:00,
2013-02-16 06:01:00,41.0,25.2,29.44,East,101,0.0,0.0,53,0.00,,---,0.00,VWS V14.01,2013-02-16 14:01:00,
2013-02-16 06:06:00,41.5,26.1,29.44,East,98,0.0,2.7,54,0.00,,---,0.00,VWS V14.01,2013-02-16 14:06:00,
2013-02-16 06:11:00,40.5,23.8,29.44,WSW,240,5.4,5.4,51,0.00,,---,0.00,VWS V14.01,2013-02-16 14:11:00,
2013-02-16 06:16:00,40.5,23.8,29.44,SSW,195,4.0,4.9,51,0.00,,---,0.00,VWS V14.01,2013-02-16 14:16:00,
2013-02-16 06:21:00,41.0,24.3,29.44,East,87,3.1,4.9,51,0.00,,---,0.00,VWS V14.01,2013-02-16 14:21:00,
2013-02-16 06:26:00,41.7,26.3,29.44,ENE,76,0.0,0.0,54,0.00,,---,0.00,VWS V14.01,2013-02-16 14:26:00,
2013-02-16 06:31:00,41.2,24.0,29.44,ENE,76,0.0,0.0,50,0.00,,---,0.00,VWS V14.01,2013-02-16 14:31:00,
2013-02-16 06:36:00,40.1,22.0,29.44,ENE,76,0.0,0.0,48,0.00,,---,0.00,VWS V14.01,2013-02-16 14:36:00,
2013-02-16 06:41:00,39.2,20.7,29.44,NNW,345,3.6,4.0,47,0.00,,---,0.00,VWS V14.01,2013-02-16 14:41:00,
2013-02-16 06:46:00,39.0,21.5,29.44,NNW,341,4.0,4.0,49,0.00,,---,0.00,VWS V14.01,2013-02-16 14:46:00,
2013-02-16 06:51:00,39.2,21.7,29.44,NNW,345,0.0,0.0,49,0.00,,---,0.00,VWS V14.01,2013-02-16 14:51:00,
2013-02-16 06:56:00,38.7,21.2,29.44,NNW,346,2.7,3.6,49,0.00,,---,0.00,VWS V14.01,2013-02-16 14:56:00,
2013-02-16 07:02:00,38.1,20.7,29.44,North,351,3.6,3.6,49,0.00,,---,0.00,VWS V14.01,2013-02-16 15:02:00,
2013-02-16 07:07:00,38.1,21.6,29.44,North,351,0.0,3.6,51,0.00,,---,0.00,VWS V14.01,2013-02-16 15:07:00,
2013-02-16 07:12:00,38.7,22.6,29.44,NNW,341,4.0,4.5,52,0.00,,---,0.00,VWS V14.01,2013-02-16 15:12:00,
2013-02-16 07:17:00,38.8,22.3,29.44,NNW,341,3.6,4.5,51,0.00,,---,0.00,VWS V14.01,2013-02-16 15:17:00,
2013-02-16 07:22:00,38.8,22.3,29.44,NNW,341,0.0,0.0,51,0.00,,---,0.00,VWS V14.01,2013-02-16 15:22:00,
2013-02-16 07:27:00,38.8,22.3,29.44,NNW,341,0.0,0.0,51,0.00,,---,0.00,VWS V14.01,2013-02-16 15:27:00,
2013-02-16 07:32:00,39.4,23.2,29.47,NNW,341,0.0,0.0,52,0.00,,---,0.00,VWS V14.01,2013-02-16 15:32:00,
2013-02-16 07:37:00,39.7,23.6,29.47,NNW,341,0.0,0.0,52,0.00,,---,0.00,VWS V14.01,2013-02-16 15:37:00,
2013-02-16 07:42:00,40.5,24.2,29.47,NNW,341,0.0,0.0,52,0.00,,---,0.00,VWS V14.01,2013-02-16 15:42:00,
2013-02-16 07:47:00,41.0,24.7,29.44,NNW,341,0.0,0.0,52,0.00,,---,0.00,VWS V14.01,2013-02-16 15:47:00,
2013-02-16 07:52:00,41.7,25.4,29.44,NNW,341,0.0,0.0,52,0.00,,---,0.00,VWS V14.01,2013-02-16 15:52:00,
2013-02-16 07:57:00,42.4,24.1,29.44,NNW,341,0.0,0.0,48,0.00,,---,0.00,VWS V14.01,2013-02-16 15:57:00,
2013-02-16 08:02:00,43.3,24.0,29.44,NNW,341,0.0,0.0,46,0.00,,---,0.00,VWS V14.01,2013-02-16 16:02:00,
2013-02-16 08:07:00,43.9,22.9,29.44,NNW,341,0.0,0.0,43,0.00,,---,0.00,VWS V14.01,2013-02-16 16:07:00,
2013-02-16 08:12:00,45.0,23.8,29.44,NNW,341,0.0,0.0,43,0.00,,---,0.00,VWS V14.01,2013-02-16 16:12:00,
2013-02-16 08:17:00,45.7,23.9,29.44,NNW,341,0.0,0.0,42,0.00,,---,0.00,VWS V14.01,2013-02-16 16:17:00,
2013-02-16 08:22:00,46.0,22.5,29.44,NNW,341,0.0,0.0,39,0.00,,---,0.00,VWS V14.01,2013-02-16 16:22:00,
2013-02-16 08:27:00,46.4,22.8,29.44,NNW,341,0.0,0.0,39,0.00,,---,0.00,VWS V14.01,2013-02-16 16:27:00,
2013-02-16 08:32:00,46.6,21.7,29.44,NNW,341,0.0,0.0,37,0.00,,---,0.00,VWS V14.01,2013-02-16 16:32:00,
2013-02-16 08:37:00,46.9,22.7,29.44,NNW,341,0.0,0.0,38,0.00,,---,0.00,VWS V14.01,2013-02-16 16:37:00,
2013-02-16 08:42:00,46.8,22.5,29.44,NNW,341,0.0,0.0,38,0.00,,---,0.00,VWS V14.01,2013-02-16 16:42:00,
2013-02-16 08:48:00,46.8,22.5,29.44,NNW,341,0.0,0.0,38,0.00,,---,0.00,VWS V14.01,2013-02-16 16:48:00,
2013-02-16 08:53:00,46.9,22.7,29.44,NNW,341,0.0,0.0,38,0.00,,---,0.00,VWS V14.01,2013-02-16 16:53:00,
2013-02-16 08:58:00,47.5,22.5,29.44,NNW,341,0.0,0.0,37,0.00,,---,0.00,VWS V14.01,2013-02-16 16:58:00,
2013-02-16 09:03:00,48.6,23.5,29.44,NNW,341,0.0,0.0,37,0.00,,---,0.00,VWS V14.01,2013-02-16 17:03:00,
2013-02-16 09:08:00,49.6,22.4,29.44,NNW,338,0.0,0.0,34,0.00,,---,0.00,VWS V14.01,2013-02-16 17:08:00,
2013-02-16 09:13:00,51.1,22.3,29.44,NNW,338,0.0,0.0,32,0.00,,---,0.00,VWS V14.01,2013-02-16 17:13:00,
2013-02-16 09:18:00,52.5,22.8,29.44,NNW,338,0.0,0.0,31,0.00,,---,0.00,VWS V14.01,2013-02-16 17:18:00,
2013-02-16 09:23:00,53.1,22.5,29.44,NW,317,0.0,2.7,30,0.00,,---,0.00,VWS V14.01,2013-02-16 17:23:00,
2013-02-16 09:28:00,54.1,23.4,29.44,NW,317,0.0,0.0,30,0.00,,---,0.00,VWS V14.01,2013-02-16 17:28:00,
2013-02-16 09:33:00,55.8,25.6,29.44,NNE,33,8.3,8.7,31,0.00,,---,0.00,VWS V14.01,2013-02-16 17:33:00,
2013-02-16 09:38:00,56.8,24.9,29.44,NNE,24,9.6,9.6,29,0.00,,---,0.00,VWS V14.01,2013-02-16 17:38:00,
2013-02-16 09:43:00,57.0,24.3,29.44,North,5,7.8,10.1,28,0.00,,---,0.00,VWS V14.01,2013-02-16 17:43:00,
2013-02-16 09:48:00,57.6,24.7,29.44,NNE,28,9.6,10.5,28,0.00,,---,0.00,VWS V14.01,2013-02-16 17:48:00,
2013-02-16 09:53:00,58.1,24.3,29.44,NE,43,9.2,9.2,27,0.00,,---,0.00,VWS V14.01,2013-02-16 17:53:00,
2013-02-16 09:58:00,58.6,23.9,29.44,NNE,19,6.3,6.7,26,0.00,,---,0.00,VWS V14.01,2013-02-16 17:58:00,
2013-02-16 10:03:00,59.2,23.4,29.44,North,6,4.0,5.8,25,0.00,,---,0.00,VWS V14.01,2013-02-16 18:03:00,
2013-02-16 10:08:00,59.2,23.4,29.44,NE,45,3.1,5.8,25,0.00,,---,0.00,VWS V14.01,2013-02-16 18:08:00,
2013-02-16 10:13:00,59.5,23.7,29.44,North,1,6.7,6.9,25,0.00,,---,0.00,VWS V14.01,2013-02-16 18:13:00,
2013-02-16 10:18:00,59.9,24.0,29.44,North,356,5.8,6.9,25,0.00,,---,0.00,VWS V14.01,2013-02-16 18:18:00,
2013-02-16 10:23:00,60.1,24.2,29.44,NNE,16,7.4,9.2,25,0.00,,---,0.00,VWS V14.01,2013-02-16 18:23:00,
2013-02-16 10:28:00,59.7,23.9,29.44,NE,55,7.8,11.0,25,0.00,,---,0.00,VWS V14.01,2013-02-16 18:28:00,
2013-02-16 10:33:00,59.7,23.9,29.41,NE,36,11.0,11.6,25,0.00,,---,0.00,VWS V14.01,2013-02-16 18:33:00,
2013-02-16 10:38:00,60.1,24.2,29.41,NNE,26,7.4,12.1,25,0.00,,---,0.00,VWS V14.01,2013-02-16 18:38:00,
2013-02-16 10:43:00,60.6,24.6,29.41,NE,49,10.1,10.5,25,0.00,,---,0.00,VWS V14.01,2013-02-16 18:43:00,
2013-02-16 10:48:00,60.4,24.5,29.41,ENE,63,8.7,8.7,25,0.00,,---,0.00,VWS V14.01,2013-02-16 18:48:00,
2013-02-16 10:53:00,59.9,24.0,29.41,East,87,8.3,11.2,25,0.00,,---,0.00,VWS V14.01,2013-02-16 18:53:00,
2013-02-16 10:58:00,59.9,24.0,29.41,East,87,9.6,10.5,25,0.00,,---,0.00,VWS V14.01,2013-02-16 18:58:00,
2013-02-16 11:03:00,59.7,23.9,29.41,ENE,75,12.5,13.0,25,0.00,,---,0.00,VWS V14.01,2013-02-16 19:03:00,
2013-02-16 11:08:00,60.4,24.5,29.41,NE,55,11.0,11.0,25,0.00,,---,0.00,VWS V14.01,2013-02-16 19:08:00,
2013-02-16 11:13:00,60.4,24.5,29.41,East,87,7.4,11.0,25,0.00,,---,0.00,VWS V14.01,2013-02-16 19:13:00,
2013-02-16 11:18:00,60.8,24.8,29.41,East,83,11.2,11.2,25,0.00,,---,0.00,VWS V14.01,2013-02-16 19:18:00,
2013-02-16 11:23:00,60.6,24.6,29.41,ENE,68,11.0,12.1,25,0.00,,---,0.00,VWS V14.01,2013-02-16 19:23:00,
2013-02-16 11:28:00,60.3,24.3,29.41,East,79,11.2,13.0,25,0.00,,---,0.00,VWS V14.01,2013-02-16 19:28:00,
2013-02-16 11:33:00,60.3,24.3,29.41,NE,43,11.6,12.1,25,0.00,,---,0.00,VWS V14.01,2013-02-16 19:33:00,
2013-02-16 11:38:00,60.4,24.5,29.41,ENE,66,13.9,13.9,25,0.00,,---,0.00,VWS V14.01,2013-02-16 19:38:00,
2013-02-16 11:43:00,60.4,24.5,29.41,ENE,60,12.1,12.1,25,0.00,,---,0.00,VWS V14.01,2013-02-16 19:43:00,
2013-02-16 11:48:00,60.6,24.6,29.38,ENE,66,10.1,12.1,25,0.00,,---,0.00,VWS V14.01,2013-02-16 19:48:00,
2013-02-16 11:53:00,61.7,25.5,29.38,ENE,72,11.6,11.6,25,0.00,,---,0.00,VWS V14.01,2013-02-16 19:53:00,
2013-02-16 11:58:00,61.7,24.6,29.38,ENE,74,9.6,11.0,24,0.00,,---,0.00,VWS V14.01,2013-02-16 19:58:00,
2013-02-16 12:03:00,61.0,24.0,29.38,ENE,63,12.1,12.5,24,0.00,,---,0.00,VWS V14.01,2013-02-16 20:03:00,
2013-02-16 12:08:00,61.0,24.0,29.38,ENE,74,12.1,13.9,24,0.00,,---,0.00,VWS V14.01,2013-02-16 20:08:00,
2013-02-16 12:13:00,60.4,23.5,29.38,East,85,11.0,12.5,24,0.00,,---,0.00,VWS V14.01,2013-02-16 20:13:00,
2013-02-16 12:18:00,60.8,23.8,29.38,ENE,77,11.6,13.4,24,0.00,,---,0.00,VWS V14.01,2013-02-16 20:18:00,
2013-02-16 12:23:00,61.0,24.0,29.38,ENE,70,11.0,11.2,24,0.00,,---,0.00,VWS V14.01,2013-02-16 20:23:00,
2013-02-16 12:28:00,61.5,24.4,29.38,NE,53,7.8,11.6,24,0.00,,---,0.00,VWS V14.01,2013-02-16 20:28:00,
2013-02-16 12:33:00,61.9,24.7,29.38,ENE,75,10.5,11.2,24,0.00,,---,0.00,VWS V14.01,2013-02-16 20:33:00,
2013-02-16 12:38:00,62.4,25.2,29.38,ENE,66,11.6,11.6,24,0.00,,---,0.00,VWS V14.01,2013-02-16 20:38:00,
2013-02-16 12:43:00,63.1,25.8,29.38,ENE,72,11.0,11.0,24,0.00,,---,0.00,VWS V14.01,2013-02-16 20:43:00,
2013-02-16 12:48:00,62.2,25.0,29.38,East,91,10.1,11.6,24,0.00,,---,0.00,VWS V14.01,2013-02-16 20:48:00,
2013-02-16 12:53:00,62.1,23.9,29.38,NE,56,11.0,11.6,23,0.00,,---,0.00,VWS V14.01,2013-02-16 20:53:00,
2013-02-16 12:58:00,62.1,23.9,29.38,NE,54,8.7,10.5,23,0.00,,---,0.00,VWS V14.01,2013-02-16 20:58:00,
2013-02-16 13:03:00,61.9,23.7,29.35,ENE,73,10.5,11.6,23,0.00,,---,0.00,VWS V14.01,2013-02-16 21:03:00,
2013-02-16 13:08:00,62.1,23.9,29.35,East,98,7.8,10.1,23,0.00,,---,0.00,VWS V14.01,2013-02-16 21:08:00,
2013-02-16 13:13:00,63.1,24.8,29.35,ENE,77,11.2,11.2,23,0.00,,---,0.00,VWS V14.01,2013-02-16 21:13:00,
2013-02-16 13:18:00,62.6,24.3,29.35,NE,55,9.6,10.5,23,0.00,,---,0.00,VWS V14.01,2013-02-16 21:18:00,
2013-02-16 13:23:00,62.2,21.9,29.35,ENE,58,8.3,10.5,21,0.00,,---,0.00,VWS V14.01,2013-02-16 21:23:00,
2013-02-16 13:28:00,62.2,21.9,29.35,ENE,59,10.1,11.0,21,0.00,,---,0.00,VWS V14.01,2013-02-16 21:28:00,
2013-02-16 13:33:00,62.8,22.3,29.35,NE,53,7.8,10.5,21,0.00,,---,0.00,VWS V14.01,2013-02-16 21:33:00,
2013-02-16 13:38:00,62.2,21.9,29.35,NNE,28,12.1,12.5,21,0.00,,---,0.00,VWS V14.01,2013-02-16 21:38:00,
2013-02-16 13:43:00,62.8,22.3,29.35,NE,34,11.0,11.6,21,0.00,,---,0.00,VWS V14.01,2013-02-16 21:43:00,
2013-02-16 13:48:00,61.7,21.4,29.35,NNE,25,11.2,12.1,21,0.00,,---,0.00,VWS V14.01,2013-02-16 21:48:00,
2013-02-16 13:53:00,61.9,23.7,29.35,NNE,27,12.5,12.5,23,0.00,,---,0.00,VWS V14.01,2013-02-16 21:53:00,
2013-02-16 13:58:00,62.6,24.3,29.35,NNE,26,9.2,11.2,23,0.00,,---,0.00,VWS V14.01,2013-02-16 21:58:00,
2013-02-16 14:03:00,63.7,21.9,29.35,NNE,12,7.8,13.0,20,0.00,,---,0.00,VWS V14.01,2013-02-16 22:03:00,
2013-02-16 14:08:00,64.0,22.2,29.35,NE,39,8.7,9.2,20,0.00,,---,0.00,VWS V14.01,2013-02-16 22:08:00,
2013-02-16 14:13:00,63.1,22.6,29.35,NE,40,10.1,10.5,21,0.00,,---,0.00,VWS V14.01,2013-02-16 22:13:00,
2013-02-16 14:18:00,63.5,22.9,29.32,NE,43,11.6,12.1,21,0.00,,---,0.00,VWS V14.01,2013-02-16 22:18:00,
2013-02-16 14:23:00,63.5,21.7,29.32,NNE,19,11.2,11.2,20,0.00,,---,0.00,VWS V14.01,2013-02-16 22:23:00,
2013-02-16 14:28:00,63.5,21.7,29.32,NNE,23,8.7,11.2,20,0.00,,---,0.00,VWS V14.01,2013-02-16 22:28:00,
2013-02-16 14:33:00,64.0,22.2,29.32,ENE,67,7.8,10.1,20,0.00,,---,0.00,VWS V14.01,2013-02-16 22:33:00,
2013-02-16 14:38:00,64.4,22.5,29.32,ENE,63,8.7,9.6,20,0.00,,---,0.00,VWS V14.01,2013-02-16 22:38:00,
2013-02-16 14:43:00,63.9,19.6,29.32,NE,49,9.2,9.6,18,0.00,,---,0.00,VWS V14.01,2013-02-16 22:43:00,
2013-02-16 14:48:00,63.7,21.9,29.32,ENE,59,7.4,9.6,20,0.00,,---,0.00,VWS V14.01,2013-02-16 22:48:00,
2013-02-16 14:53:00,64.0,22.2,29.32,ENE,59,6.9,9.6,20,0.00,,---,0.00,VWS V14.01,2013-02-16 22:53:00,
2013-02-16 14:58:00,64.2,19.9,29.32,ENE,68,7.8,7.8,18,0.00,,---,0.00,VWS V14.01,2013-02-16 22:58:00,
2013-02-16 15:03:00,64.9,22.9,29.32,NE,43,9.6,10.1,20,0.00,,---,0.00,VWS V14.01,2013-02-16 23:03:00,
2013-02-16 15:08:00,64.6,20.1,29.32,NNE,27,9.2,11.0,18,0.00,,---,0.00,VWS V14.01,2013-02-16 23:08:00,
2013-02-16 15:13:00,64.2,19.9,29.32,NE,56,5.4,9.2,18,0.00,,---,0.00,VWS V14.01,2013-02-16 23:13:00,
2013-02-16 15:18:00,64.0,19.7,29.32,NE,36,6.9,10.1,18,0.00,,---,0.00,VWS V14.01,2013-02-16 23:18:00,
2013-02-16 15:23:00,63.5,19.3,29.32,NNE,16,8.3,8.3,18,0.00,,---,0.00,VWS V14.01,2013-02-16 23:23:00,
2013-02-16 15:28:00,63.3,19.1,29.32,NNE,19,9.2,9.6,18,0.00,,---,0.00,VWS V14.01,2013-02-16 23:28:00,
2013-02-16 15:33:00,63.0,18.8,29.32,NNE,31,8.7,10.1,18,0.00,,---,0.00,VWS V14.01,2013-02-16 23:33:00,
2013-02-16 15:38:00,63.3,22.8,29.32,NE,38,6.3,8.3,21,0.00,,---,0.00,VWS V14.01,2013-02-16 23:38:00,
2013-02-16 15:43:00,63.0,18.8,29.32,NE,35,6.9,8.3,18,0.00,,---,0.00,VWS V14.01,2013-02-16 23:43:00,
2013-02-16 15:48:00,62.2,18.2,29.29,NE,36,7.4,9.2,18,0.00,,---,0.00,VWS V14.01,2013-02-16 23:48:00,
2013-02-16 15:53:00,62.4,22.0,29.29,NE,51,5.8,6.9,21,0.00,,---,0.00,VWS V14.01,2013-02-16 23:53:00,
2013-02-16 15:58:00,62.2,21.9,29.29,ENE,69,6.9,7.4,21,0.00,,---,0.00,VWS V14.01,2013-02-16 23:58:00,
2013-02-16 16:03:00,62.4,22.0,29.29,ENE,71,5.8,6.9,21,0.00,,---,0.00,VWS V14.01,2013-02-17 00:03:00,
2013-02-16 16:08:00,62.4,22.0,29.29,NE,55,5.8,6.9,21,0.00,,---,0.00,VWS V14.01,2013-02-17 00:08:00,
2013-02-16 16:13:00,63.0,22.5,29.29,ENE,59,5.8,6.9,21,0.00,,---,0.00,VWS V14.01,2013-02-17 00:13:00,
2013-02-16 16:18:00,63.0,22.5,29.29,East,83,5.8,6.7,21,0.00,,---,0.00,VWS V14.01,2013-02-17 00:18:00,
2013-02-16 16:23:00,63.1,22.6,29.29,NE,54,7.8,7.8,21,0.00,,---,0.00,VWS V14.01,2013-02-17 00:23:00,
2013-02-16 16:28:00,63.0,22.5,29.29,East,82,5.8,7.8,21,0.00,,---,0.00,VWS V14.01,2013-02-17 00:28:00,
2013-02-16 16:33:00,63.0,22.5,29.29,ENE,63,6.3,6.7,21,0.00,,---,0.00,VWS V14.01,2013-02-17 00:33:00,
2013-02-16 16:38:00,62.4,22.0,29.29,East,87,6.7,6.9,21,0.00,,---,0.00,VWS V14.01,2013-02-17 00:38:00,
2013-02-16 16:43:00,62.1,21.7,29.29,ENE,77,6.3,6.3,21,0.00,,---,0.00,VWS V14.01,2013-02-17 00:43:00,
2013-02-16 16:48:00,61.5,21.2,29.29,East,84,6.9,6.9,21,0.00,,---,0.00,VWS V14.01,2013-02-17 00:48:00,
2013-02-16 16:53:00,61.7,21.4,29.29,ENE,75,7.8,8.7,21,0.00,,---,0.00,VWS V14.01,2013-02-17 00:53:00,
2013-02-16 16:58:00,61.7,21.4,29.29,ENE,78,6.3,6.9,21,0.00,,---,0.00,VWS V14.01,2013-02-17 00:58:00,
2013-02-16 17:03:00,61.3,21.1,29.29,East,82,7.8,7.8,21,0.00,,---,0.00,VWS V14.01,2013-02-17 01:03:00,
2013-02-16 17:08:00,61.3,21.1,29.29,ENE,70,6.9,8.3,21,0.00,,---,0.00,VWS V14.01,2013-02-17 01:08:00,
2013-02-16 17:13:00,61.2,20.9,29.29,ENE,64,7.4,9.2,21,0.00,,---,0.00,VWS V14.01,2013-02-17 01:13:00,
2013-02-16 17:18:00,60.6,20.5,29.29,ENE,63,6.9,7.8,21,0.00,,---,0.00,VWS V14.01,2013-02-17 01:18:00,
2013-02-16 17:23:00,59.7,20.8,29.29,ENE,70,4.9,5.8,22,0.00,,---,0.00,VWS V14.01,2013-02-17 01:23:00,
2013-02-16 17:28:00,59.5,20.7,29.29,ENE,65,4.5,6.9,22,0.00,,---,0.00,VWS V14.01,2013-02-17 01:28:00,
2013-02-16 17:33:00,59.0,20.2,29.29,ENE,70,7.4,7.4,22,0.00,,---,0.00,VWS V14.01,2013-02-17 01:33:00,
2013-02-16 17:38:00,58.6,19.9,29.29,ENE,66,5.4,5.8,22,0.00,,---,0.00,VWS V14.01,2013-02-17 01:38:00,
2013-02-16 17:43:00,58.8,20.1,29.29,East,85,3.6,4.5,22,0.00,,---,0.00,VWS V14.01,2013-02-17 01:43:00,
2013-02-16 17:48:00,58.1,19.5,29.29,ESE,103,4.0,4.0,22,0.00,,---,0.00,VWS V14.01,2013-02-17 01:48:00,
2013-02-16 17:53:00,57.4,18.9,29.29,ESE,103,0.0,0.0,22,0.00,,---,0.00,VWS V14.01,2013-02-17 01:53:00,
2013-02-16 17:58:00,57.4,18.9,29.29,ESE,103,0.0,0.0,22,0.00,,---,0.00,VWS V14.01,2013-02-17 01:58:00,
2013-02-16 18:03:00,56.1,17.8,29.29,ESE,103,0.0,0.0,22,0.00,,---,0.00,VWS V14.01,2013-02-17 02:03:00,
2013-02-16 18:08:00,55.9,17.7,29.29,ESE,104,0.0,0.0,22,0.00,,---,0.00,VWS V14.01,2013-02-17 02:08:00,
2013-02-16 18:13:00,55.8,17.5,29.29,ESE,104,3.1,3.1,22,0.00,,---,0.00,VWS V14.01,2013-02-17 02:13:00,
2013-02-16 18:18:00,55.8,17.5,29.29,ESE,104,3.1,3.1,22,0.00,,---,0.00,VWS V14.01,2013-02-17 02:18:00,
2013-02-16 18:23:00,55.8,17.5,29.29,ESE,104,3.6,3.6,22,0.00,,---,0.00,VWS V14.01,2013-02-17 02:23:00,
2013-02-16 18:28:00,55.6,20.3,29.29,ESE,104,3.1,3.1,25,0.00,,---,0.00,VWS V14.01,2013-02-17 02:28:00,
2013-02-16 18:33:00,53.2,18.3,29.29,ESE,112,4.9,5.4,25,0.00,,---,0.00,VWS V14.01,2013-02-17 02:33:00,
2013-02-16 18:38:00,52.0,18.2,29.29,ESE,108,0.0,4.0,26,0.00,,---,0.00,VWS V14.01,2013-02-17 02:38:00,
2013-02-16 18:43:00,52.0,19.1,29.29,ESE,108,0.0,3.1,27,0.00,,---,0.00,VWS V14.01,2013-02-17 02:43:00,
2013-02-16 18:48:00,51.8,18.9,29.29,ESE,110,4.5,4.5,27,0.00,,---,0.00,VWS V14.01,2013-02-17 02:48:00,
2013-02-16 18:53:00,51.3,18.4,29.29,ESE,110,3.6,4.5,27,0.00,,---,0.00,VWS V14.01,2013-02-17 02:53:00,
2013-02-16 18:58:00,50.2,19.2,29.29,ESE,104,4.0,4.5,29,0.00,,---,0.00,VWS V14.01,2013-02-17 02:58:00,
2013-02-16 19:03:00,50.0,19.8,29.29,ESE,103,2.7,3.6,30,0.00,,---,0.00,VWS V14.01,2013-02-17 03:03:00,
2013-02-16 19:08:00,49.8,20.4,29.29,ESE,103,0.0,0.0,31,0.00,,---,0.00,VWS V14.01,2013-02-17 03:08:00,
2013-02-16 19:13:00,49.6,21.0,29.29,ESE,103,0.0,0.0,32,0.00,,---,0.00,VWS V14.01,2013-02-17 03:13:00,
2013-02-16 19:18:00,50.0,22.8,29.29,ESE,103,0.0,0.0,34,0.00,,---,0.00,VWS V14.01,2013-02-17 03:18:00,
2013-02-16 19:23:00,50.2,22.9,29.29,ESE,103,0.0,0.0,34,0.00,,---,0.00,VWS V14.01,2013-02-17 03:23:00,
2013-02-16 19:28:00,49.6,21.7,29.29,ESE,103,0.0,0.0,33,0.00,,---,0.00,VWS V14.01,2013-02-17 03:28:00,
2013-02-16 19:33:00,48.6,20.8,29.29,ESE,103,0.0,0.0,33,0.00,,---,0.00,VWS V14.01,2013-02-17 03:33:00,
2013-02-16 19:38:00,47.5,19.8,29.29,ESE,103,0.0,0.0,33,0.00,,---,0.00,VWS V14.01,2013-02-17 03:38:00,
2013-02-16 19:43:00,46.4,19.6,29.29,ESE,103,0.0,0.0,34,0.00,,---,0.00,VWS V14.01,2013-02-17 03:43:00,
2013-02-16 19:48:00,46.9,23.9,29.29,ESE,103,0.0,0.0,40,0.00,,---,0.00,VWS V14.01,2013-02-17 03:48:00,
2013-02-16 19:53:00,48.2,25.6,29.29,ESE,103,3.1,4.5,41,0.00,,---,0.00,VWS V14.01,2013-02-17 03:53:00,
2013-02-16 19:58:00,48.7,25.5,29.29,ESE,103,4.5,4.5,40,0.00,,---,0.00,VWS V14.01,2013-02-17 03:58:00,
2013-02-16 20:03:00,49.1,25.2,29.29,ESE,117,4.5,5.4,39,0.00,,---,0.00,VWS V14.01,2013-02-17 04:03:00,
2013-02-16 20:08:00,49.3,24.8,29.29,ESE,118,4.0,4.9,38,0.00,,---,0.00,VWS V14.01,2013-02-17 04:08:00,
2013-02-16 20:13:00,49.5,24.9,29.29,ESE,118,4.5,4.5,38,0.00,,---,0.00,VWS V14.01,2013-02-17 04:13:00,
2013-02-16 20:18:00,48.9,24.5,29.29,ESE,117,3.6,4.0,38,0.00,,---,0.00,VWS V14.01,2013-02-17 04:18:00,
2013-02-16 20:23:00,48.7,24.9,29.29,ESE,117,0.0,3.6,39,0.00,,---,0.00,VWS V14.01,2013-02-17 04:23:00,
2013-02-16 20:28:00,47.8,23.5,29.29,NNE,31,4.0,4.9,38,0.00,,---,0.00,VWS V14.01,2013-02-17 04:28:00,
2013-02-16 20:33:00,46.6,24.2,29.29,NNW,338,4.5,4.9,41,0.00,,---,0.00,VWS V14.01,2013-02-17 04:33:00,
2013-02-16 20:38:00,46.2,25.5,29.29,NNW,339,0.0,0.0,44,0.00,,---,0.00,VWS V14.01,2013-02-17 04:38:00,
2013-02-16 20:43:00,46.0,25.9,29.29,NNW,339,0.0,0.0,45,0.00,,---,0.00,VWS V14.01,2013-02-17 04:43:00,
2013-02-16 20:48:00,46.2,27.1,29.29,NNW,339,0.0,0.0,47,0.00,,---,0.00,VWS V14.01,2013-02-17 04:48:00,
2013-02-16 20:53:00,46.9,28.8,29.29,NNW,339,0.0,0.0,49,0.00,,---,0.00,VWS V14.01,2013-02-17 04:53:00,
2013-02-16 20:58:00,46.8,28.1,29.29,NNW,339,0.0,0.0,48,0.00,,---,0.00,VWS V14.01,2013-02-17 04:58:00,
2013-02-16 21:00:00,46.9,27.8,29.29,North,356,3.6,4.0,47,0.00,,---,0.00,VWS V14.01,2013-02-17 05:00:00,
2013-02-16 21:01:00,46.9,27.8,29.29,NE,38,3.6,4.0,47,0.00,,---,0.00,VWS V14.01,2013-02-17 05:01:00,
2013-02-16 21:02:00,47.1,27.9,29.29,ENE,59,3.6,4.0,47,0.00,,---,0.00,VWS V14.01,2013-02-17 05:02:00,
2013-02-16 21:05:00,46.9,27.8,29.29,ENE,59,0.0,2.7,47,0.00,,---,0.00,VWS V14.01,2013-02-17 05:05:00,
2013-02-16 21:10:00,45.9,25.2,29.29,ENE,59,0.0,0.0,44,0.00,,---,0.00,VWS V14.01,2013-02-17 05:10:00,
2013-02-16 21:15:00,45.5,25.9,29.29,ENE,59,0.0,0.0,46,0.00,,---,0.00,VWS V14.01,2013-02-17 05:15:00,
2013-02-16 21:20:00,46.6,29.0,29.29,ESE,108,4.0,4.5,50,0.00,,---,0.00,VWS V14.01,2013-02-17 05:20:00,
2013-02-16 21:25:00,47.1,29.0,29.29,ESE,109,3.1,3.6,49,0.00,,---,0.00,VWS V14.01,2013-02-17 05:25:00,
2013-02-16 21:30:00,46.9,26.7,29.29,ESE,109,4.0,4.5,45,0.00,,---,0.00,VWS V14.01,2013-02-17 05:30:00,
2013-02-16 21:35:00,46.6,26.4,29.32,ESE,110,4.0,4.0,45,0.00,,---,0.00,VWS V14.01,2013-02-17 05:35:00,
2013-02-16 21:40:00,46.8,28.1,29.32,ESE,111,0.0,0.0,48,0.00,,---,0.00,VWS V14.01,2013-02-17 05:40:00,
2013-02-16 21:45:00,46.0,26.4,29.32,ESE,111,0.0,0.0,46,0.00,,---,0.00,VWS V14.01,2013-02-17 05:45:00,
2013-02-16 21:50:00,44.8,24.8,29.32,ESE,111,0.0,0.0,45,0.00,,---,0.00,VWS V14.01,2013-02-17 05:50:00,
2013-02-16 21:55:00,43.7,23.2,29.32,ESE,111,0.0,0.0,44,0.00,,---,0.00,VWS V14.01,2013-02-17 05:55:00,
2013-02-16 22:00:00,43.3,24.5,29.32,East,95,0.0,0.0,47,0.00,,---,0.00,VWS V14.01,2013-02-17 06:00:00,
2013-02-16 22:06:00,43.7,25.8,29.32,East,95,0.0,0.0,49,0.00,,---,0.00,VWS V14.01,2013-02-17 06:06:00,
2013-02-16 22:11:00,43.9,26.9,29.32,East,95,0.0,0.0,51,0.00,,---,0.00,VWS V14.01,2013-02-17 06:11:00,
2013-02-16 22:17:00,45.1,30.4,29.29,East,95,0.0,0.0,56,0.00,,---,0.00,VWS V14.01,2013-02-17 06:17:00,
2013-02-16 22:23:00,45.1,30.0,29.29,East,95,0.0,0.0,55,0.00,,---,0.00,VWS V14.01,2013-02-17 06:23:00,
2013-02-16 22:28:00,44.4,28.4,29.29,East,95,0.0,0.0,53,0.00,,---,0.00,VWS V14.01,2013-02-17 06:28:00,
2013-02-16 22:33:00,44.6,29.0,29.29,East,95,0.0,0.0,54,0.00,,---,0.00,VWS V14.01,2013-02-17 06:33:00,
2013-02-16 22:38:00,43.9,27.9,29.29,East,95,0.0,0.0,53,0.00,,---,0.00,VWS V14.01,2013-02-17 06:38:00,
2013-02-16 22:43:00,43.0,26.6,29.29,East,95,0.0,0.0,52,0.00,,---,0.00,VWS V14.01,2013-02-17 06:43:00,
2013-02-16 22:48:00,43.2,27.2,29.29,East,95,0.0,0.0,53,0.00,,---,0.00,VWS V14.01,2013-02-17 06:48:00,
2013-02-16 22:53:00,43.9,30.1,29.29,East,95,0.0,0.0,58,0.00,,---,0.00,VWS V14.01,2013-02-17 06:53:00,
2013-02-16 22:58:00,44.2,30.4,29.29,East,95,0.0,0.0,58,0.00,,---,0.00,VWS V14.01,2013-02-17 06:58:00,
2013-02-16 23:03:00,43.9,28.8,29.29,East,95,3.1,4.0,55,0.00,,---,0.00,VWS V14.01,2013-02-17 07:03:00,
2013-02-16 23:08:00,44.2,28.2,29.29,East,95,3.1,4.0,53,0.00,,---,0.00,VWS V14.01,2013-02-17 07:08:00,
2013-02-16 23:13:00,44.8,28.7,29.29,East,95,3.6,3.6,53,0.00,,---,0.00,VWS V14.01,2013-02-17 07:13:00,
2013-02-16 23:18:00,44.8,27.8,29.29,East,95,3.6,4.0,51,0.00,,---,0.00,VWS V14.01,2013-02-17 07:18:00,
2013-02-16 23:23:00,45.1,28.1,29.29,East,95,0.0,3.6,51,0.00,,---,0.00,VWS V14.01,2013-02-17 07:23:00,
2013-02-16 23:28:00,44.2,25.8,29.29,East,95,0.0,0.0,48,0.00,,---,0.00,VWS V14.01,2013-02-17 07:28:00,
2013-02-16 23:33:00,43.0,24.6,29.29,NNE,27,0.0,0.0,48,0.00,,---,0.00,VWS V14.01,2013-02-17 07:33:00,
2013-02-16 23:39:00,42.1,24.8,29.29,NNW,334,4.9,5.4,50,0.00,,---,0.00,VWS V14.01,2013-02-17 07:39:00,
2013-02-16 23:44:00,42.1,26.2,29.29,NNW,328,4.9,5.4,53,0.00,,---,0.00,VWS V14.01,2013-02-17 07:44:00,
2013-02-16 23:49:00,42.8,29.1,29.29,NNW,341,0.0,4.9,58,0.00,,---,0.00,VWS V14.01,2013-02-17 07:49:00,
2013-02-16 23:54:00,41.2,26.2,29.29,NNW,341,0.0,0.0,55,0.00,,---,0.00,VWS V14.01,2013-02-17 07:54:00,
2013-02-16 23:59:00,41.5,27.9,29.29,NNW,341,0.0,0.0,58,0.00,,---,0.00,VWS V14.01,2013-02-17 07:59:00,